Location: Strawberry
(45.6646°N, 111.9596°W)
Time: 18:17:47
(UTC+00:00)

SR - Pass Details

Date: 10 October 2022
Orbit: 577 x 874 km, 66.7° (Epoch: 05 December)

Event Time Altitude Azimuth Distance (km) Brightness Sun altitude
Rises 02:25:50 0° 203° (SSW) 3,428 ? -17.1°
Reaches altitude 10° 02:28:18 10° 201° (SSW) 2,509 ? -17.5°
Maximum altitude 02:34:08 70° 119° (ESE) 929 ? -18.5°
Drops below altitude 10° 02:39:57 10° 37° (NE) 2,502 ? -19.5°
Enters shadow 02:41:09 - 36° (NE) 2,952 ? -19.7°
